Weather History for NW Arkansas Airport, AR

Change the Weather History Date:

Thursday, November 22, 2012

  Actual Average Record
Temperature  
Mean Temperature 57 °F -  
Max Temperature 66 °F - - ()
Min Temperature 48 °F - - ()
Degree Days  
Heating Degree Days 8    
Growing Degree Days 7 (Base 50)    
Moisture  
Dew Point 44 °F    
Average Humidity 60    
Maximum Humidity 74    
Minimum Humidity 47    
Precipitation  
Precipitation 0.00 in - - ()
Sea Level Pressure  
Sea Level Pressure 30.05 in    
Wind  
Wind Speed 10 mph (SSW)    
Max Wind Speed 23 mph    
Max Gust Speed 31 mph    
Visibility 10 miles    
Events      
T = Trace of Precipitation, MM = Missing Value Source: NWS Daily Summary

Daily Weather History Graph

Daily Weather History Graph

Search for Another Location

Airport:

Trip Planner

Search our weather history database for the weather conditions in past years. The results will help you decide how hot, cold, wet, or windy it might be!

Date:

Astronomy

Nov. 22, 2012 Rise Set
Actual Time 7:01 AM CST 5:04 PM CST
Civil Twilight 6:34 AM CST 5:32 PM CST
Nautical Twilight 6:02 AM CST 6:04 PM CST
Astronomical Twilight 5:31 AM CST 6:34 PM CST
Moon 1:43 PM CST (11/22) 1:31 AM CST (11/22)
Length of Visible Light 10h 58m
Length of Day
10h 03m
Waxing Gibbous, 71% of the Moon is Illuminated
Nov 22
Waxing Gibbous
Nov 28
Full
Dec 6
Last Quarter
Dec 13
New
Dec 19
First Quarter

Hourly Weather History & Observations

Time (CST) Temp. Dew Point Humidity Pressure Visibility Wind Dir Wind Speed Gust Speed Precip Events Conditions
12:53 AM 48.0 °F 37.9 °F 68% 30.09 in 10.0 mi South 5.8 mph - N/A   Clear
1:53 AM 48.9 °F 39.0 °F 69% 30.07 in 10.0 mi SSE 4.6 mph - N/A   Clear
2:53 AM 48.0 °F 39.9 °F 74% 30.06 in 10.0 mi SSE 6.9 mph - N/A   Clear
3:53 AM 52.0 °F 41.0 °F 66% 30.05 in 10.0 mi South 8.1 mph - N/A   Clear
4:53 AM 53.1 °F 41.0 °F 64% 30.05 in 10.0 mi South 10.4 mph - N/A   Clear
5:53 AM 53.1 °F 41.0 °F 64% 30.06 in 10.0 mi South 9.2 mph - N/A   Clear
6:53 AM 52.0 °F 39.9 °F 63% 30.06 in 10.0 mi South 6.9 mph - N/A   Clear
7:53 AM 54.0 °F 41.0 °F 62% 30.08 in 10.0 mi South 10.4 mph - N/A   Clear
8:53 AM 57.0 °F 41.0 °F 55% 30.07 in 10.0 mi South 16.1 mph - N/A   Clear
9:53 AM 60.1 °F 43.0 °F 53% 30.07 in 10.0 mi South 17.3 mph 24.2 mph N/A   Clear
10:53 AM 63.0 °F 45.0 °F 52% 30.05 in 10.0 mi SSW 13.8 mph - N/A   Clear
11:53 AM 64.9 °F 46.0 °F 50% 30.02 in 10.0 mi SSW 16.1 mph 24.2 mph N/A   Clear
12:53 PM 66.0 °F 45.0 °F 47% 29.99 in 10.0 mi SSW 18.4 mph 31.1 mph N/A   Clear
1:53 PM 66.9 °F 46.0 °F 47% 29.98 in 10.0 mi SSW 19.6 mph 25.3 mph N/A   Partly Cloudy
2:53 PM 64.0 °F 46.9 °F 54% 29.97 in 10.0 mi South 12.7 mph 21.9 mph 0.00 in   Scattered Clouds
3:53 PM 64.0 °F 46.0 °F 52% 29.98 in 10.0 mi South 15.0 mph 23.0 mph N/A   Clear
4:53 PM 63.0 °F 46.0 °F 54% 29.98 in 10.0 mi South 16.1 mph - N/A   Scattered Clouds
5:53 PM 63.0 °F 48.0 °F 58% 29.99 in 10.0 mi South 12.7 mph - 0.00 in   Mostly Cloudy
6:53 PM 61.0 °F 48.0 °F 62% 30.04 in 10.0 mi SW 5.8 mph - N/A   Partly Cloudy
8:53 PM 60.1 °F 48.0 °F 64% 30.07 in 10.0 mi SSW 6.9 mph - N/A   Overcast
9:53 PM 59.0 °F 48.0 °F 67% 30.08 in 10.0 mi SSW 8.1 mph - N/A   Mostly Cloudy
10:53 PM 60.1 °F 48.0 °F 64% 30.12 in 10.0 mi WNW 5.8 mph - N/A   Overcast
11:53 PM 57.9 °F 44.1 °F 60% 30.17 in 10.0 mi North 23.0 mph 31.1 mph N/A   Overcast